Weather History for K1P1 - July, 2013

Change the Weather History Date:

Monday, July 15, 2013

  Actual Average (KLCI) Record (KLCI)
Temperature  
Mean Temperature 76 °F -  
Max Temperature 90 °F 82 °F 97 °F (1995)
Min Temperature 63 °F 62 °F 52 °F (1986)
Cooling Degree Days 12    
Growing Degree Days 26 (Base 50)    
Moisture  
Dew Point 65 °F    
Average Humidity 73    
Maximum Humidity 97    
Minimum Humidity 39    
Precipitation  
Precipitation 0.00 in - - ()
Sea Level Pressure  
Sea Level Pressure 30.18 in    
Wind  
Wind Speed 2 mph (WNW)    
Max Wind Speed 10 mph    
Max Gust Speed -    
Visibility 7 miles    
Events Fog    
Averages and records for this station are not official NWS values.
T = Trace of Precipitation, MM = Missing Value Source: NWS Daily Summary

Daily Weather History Graph

Daily Weather History Graph

Search for Another Location

Airport or City:

Trip Planner

Search our weather history database for the weather conditions in past years. The results will help you decide how hot, cold, wet, or windy it might be!

Date:

Astronomy

Jul. 15, 2013 Rise Set
Actual Time 5:19 AM EDT 8:26 PM EDT
Civil Twilight 4:44 AM EDT 9:01 PM EDT
Nautical Twilight 3:59 AM EDT 9:45 PM EDT
Astronomical Twilight 3:05 AM EDT 10:39 PM EDT
Moon 12:51 PM EDT (7/15) 11:54 PM EDT (7/15)
Length of Visible Light 16h 16m
Length of Day
15h 07m
Waxing Crescent, 45% of the Moon is Illuminated
Jul 15
Waxing Crescent
Jul 15
First Quarter
Jul 22
Full
Jul 29
Last Quarter
Aug 6
New

Hourly Weather History & Observations

Time (EDT) Temp. Heat Index Dew Point Humidity Pressure Visibility Wind Dir Wind Speed Gust Speed Precip Events Conditions
12:15 AM 67.3 °F - 66.0 °F 96% 30.23 in 2.5 mi Calm Calm - N/A   Clear
12:35 AM 67.1 °F - 65.7 °F 95% 30.23 in 1.2 mi Calm Calm - N/A   Mist
12:55 AM 66.7 °F - 65.5 °F 96% 30.23 in 3.0 mi Calm Calm - N/A   Clear
1:15 AM 65.8 °F - 64.6 °F 96% 30.23 in 2.0 mi Calm Calm - N/A   Clear
1:35 AM 65.7 °F - 64.4 °F 96% 30.23 in 0.5 mi Calm Calm - N/A Fog Fog
1:55 AM 65.5 °F - 64.4 °F 96% 30.23 in 1.5 mi Calm Calm - N/A   Mist
2:15 AM 64.9 °F - 63.9 °F 96% 30.22 in 3.0 mi Calm Calm - N/A   Scattered Clouds
2:35 AM 64.9 °F - 63.9 °F 96% 30.22 in 0.5 mi Calm Calm - N/A Fog Fog
2:55 AM 64.6 °F - 63.5 °F 96% 30.22 in 1.0 mi Calm Calm - N/A   Mist
3:15 AM 64.2 °F - 63.1 °F 96% 30.22 in 2.0 mi Calm Calm - N/A   Scattered Clouds
3:35 AM 64.6 °F - 63.5 °F 96% 30.22 in 4.0 mi Calm Calm - N/A   Mostly Cloudy
3:55 AM 64.4 °F - 63.5 °F 97% 30.22 in 2.0 mi Calm Calm - N/A   Overcast
4:15 AM 64.4 °F - 63.5 °F 97% 30.22 in 0.8 mi Calm Calm - N/A   Overcast
4:35 AM 63.7 °F - 62.6 °F 96% 30.22 in 0.2 mi Calm Calm - N/A Fog Fog
4:55 AM 64.2 °F - 63.1 °F 96% 30.22 in 1.0 mi Calm Calm - N/A   Overcast
5:15 AM 64.4 °F - 63.5 °F 97% 30.22 in 1.0 mi Calm Calm - N/A   Overcast
5:35 AM 65.3 °F - 64.0 °F 96% 30.22 in 1.5 mi Calm Calm - N/A   Overcast
5:55 AM 65.7 °F - 64.6 °F 96% 30.22 in 2.0 mi Calm Calm - N/A   Overcast
6:15 AM 65.7 °F - 64.6 °F 96% 30.22 in 0.8 mi Calm Calm - N/A   Overcast
6:35 AM 65.8 °F - 64.8 °F 96% 30.23 in 0.2 mi Calm Calm - N/A Fog Fog
6:55 AM 66.4 °F - 65.3 °F 96% 30.23 in 0.2 mi Calm Calm - N/A Fog Fog
7:15 AM 66.4 °F - 65.3 °F 96% 30.23 in 0.2 mi Calm Calm - N/A Fog Fog
7:35 AM 67.1 °F - 66.0 °F 96% 30.23 in 0.2 mi Calm Calm - N/A Fog Fog
7:55 AM 67.3 °F - 66.2 °F 96% 30.23 in 0.8 mi Calm Calm - N/A   Overcast
8:15 AM 67.8 °F - 66.7 °F 96% 30.23 in 5.0 mi Calm Calm - N/A   Overcast
8:35 AM 69.4 °F - 68.4 °F 96% 30.23 in 10.0 mi Calm Calm - N/A   Scattered Clouds
8:55 AM 71.1 °F - 70.2 °F 97% 30.22 in 10.0 mi Calm Calm - N/A   Clear
9:15 AM 74.5 °F - 73.0 °F 95% 30.21 in 10.0 mi NW 3.5 mph - N/A   Clear
9:35 AM 79.9 °F - 70.2 °F 72% 30.21 in 10.0 mi West 8.1 mph - N/A   Clear
9:55 AM 80.8 °F 83.9 °F 69.4 °F 68% 30.21 in 10.0 mi West 8.1 mph - N/A   Clear
10:15 AM 82.0 °F 85.5 °F 69.3 °F 65% 30.20 in 10.0 mi WNW 6.9 mph - N/A   Scattered Clouds
10:35 AM 81.9 °F 85.0 °F 68.5 °F 64% 30.20 in 10.0 mi West 8.1 mph - N/A   Scattered Clouds
10:55 AM 84.2 °F 87.6 °F 68.5 °F 59% 30.20 in 10.0 mi West 6.9 mph - N/A   Scattered Clouds
11:15 AM 84.2 °F 87.1 °F 67.6 °F 57% 30.19 in 10.0 mi NW 8.1 mph - N/A   Clear
11:35 AM 85.1 °F 86.6 °F 64.6 °F 50% 30.19 in 10.0 mi WNW 8.1 mph - N/A   Clear
11:55 AM 86.0 °F 87.6 °F 64.9 °F 49% 30.19 in 10.0 mi West 9.2 mph - N/A   Clear
12:15 PM 85.8 °F 88.2 °F 66.4 °F 52% 30.18 in 10.0 mi West 8.1 mph - N/A   Clear
12:35 PM 86.2 °F 88.4 °F 66.4 °F 51% 30.18 in 10.0 mi West 6.9 mph - N/A   Scattered Clouds
12:55 PM 86.0 °F 87.9 °F 65.7 °F 50% 30.17 in 10.0 mi West 8.1 mph - N/A   Scattered Clouds
1:15 PM 87.8 °F 89.4 °F 64.8 °F 46% 30.16 in 10.0 mi WNW 6.9 mph - N/A   Scattered Clouds
1:35 PM 87.8 °F 90.0 °F 66.0 °F 48% 30.16 in 10.0 mi West 6.9 mph - N/A   Scattered Clouds
1:55 PM 87.8 °F 89.4 °F 64.9 °F 46% 30.15 in 10.0 mi WNW 4.6 mph - N/A   Scattered Clouds
2:15 PM 88.7 °F 90.4 °F 64.8 °F 45% 30.15 in 10.0 mi WNW 5.8 mph - N/A   Scattered Clouds
2:35 PM 88.3 °F 89.9 °F 64.6 °F 45% 30.15 in 10.0 mi West 5.8 mph - N/A   Scattered Clouds
2:55 PM 89.1 °F 91.0 °F 64.9 °F 45% 30.14 in 10.0 mi NW 6.9 mph - N/A   Scattered Clouds
3:15 PM 89.6 °F 91.5 °F 64.8 °F 44% 30.14 in 10.0 mi West 9.2 mph - N/A   Scattered Clouds
3:35 PM 89.8 °F 91.4 °F 64.8 °F 43% 30.14 in 10.0 mi WNW 8.1 mph - N/A   Scattered Clouds
3:55 PM 90.0 °F 91.0 °F 63.3 °F 41% 30.13 in 10.0 mi WNW 8.1 mph - N/A   Mostly Cloudy
4:15 PM 89.8 °F 91.4 °F 64.2 °F 43% 30.12 in 10.0 mi WNW 10.4 mph - N/A   Scattered Clouds
4:35 PM 90.1 °F 91.6 °F 64.4 °F 42% 30.12 in 10.0 mi WNW 6.9 mph - N/A   Scattered Clouds
4:55 PM 90.0 °F 90.6 °F 63.0 °F 40% 30.12 in 10.0 mi WNW 8.1 mph - N/A   Scattered Clouds
5:15 PM 89.4 °F 89.8 °F 62.1 °F 40% 30.12 in 10.0 mi WNW 10.4 mph - N/A   Scattered Clouds
5:35 PM 88.0 °F 88.4 °F 62.2 °F 42% 30.12 in 10.0 mi NNW 6.9 mph - N/A   Clear
5:55 PM 88.7 °F 89.1 °F 62.4 °F 41% 30.11 in 10.0 mi NW 6.9 mph - N/A   Scattered Clouds
6:15 PM 88.5 °F 88.6 °F 61.3 °F 40% 30.11 in 10.0 mi WNW 5.8 mph - N/A   Scattered Clouds
6:35 PM 87.8 °F 87.4 °F 59.9 °F 39% 30.11 in 10.0 mi WNW 6.9 mph - N/A   Clear
6:55 PM 87.4 °F 87.4 °F 61.0 °F 41% 30.11 in 10.0 mi West 5.8 mph - N/A   Clear
7:15 PM 86.9 °F 87.5 °F 62.6 °F 44% 30.12 in 10.0 mi Calm Calm - N/A   Clear
7:35 PM 85.1 °F 86.6 °F 64.4 °F 50% 30.12 in 10.0 mi Calm Calm - N/A   Clear
7:55 PM 81.7 °F 84.5 °F 67.8 °F 63% 30.12 in 10.0 mi Calm Calm - N/A   Clear
8:15 PM 78.6 °F - 68.2 °F 70% 30.12 in 10.0 mi West 3.5 mph - N/A   Clear
8:35 PM 76.6 °F - 66.9 °F 72% 30.13 in 10.0 mi West 3.5 mph - N/A   Clear
8:55 PM 75.2 °F - 66.4 °F 74% 30.14 in 10.0 mi West 3.5 mph - N/A   Clear
9:15 PM 72.9 °F - 66.9 °F 82% 30.14 in 10.0 mi Calm Calm - N/A   Clear
9:35 PM 71.1 °F - 67.1 °F 87% 30.15 in 10.0 mi Calm Calm - N/A   Clear
9:55 PM 70.0 °F - 66.6 °F 89% 30.15 in 10.0 mi Calm Calm - N/A   Clear
10:15 PM 70.2 °F - 66.4 °F 88% 30.16 in 10.0 mi Calm Calm - N/A   Clear
10:35 PM 68.9 °F - 66.2 °F 91% 30.16 in 10.0 mi Calm Calm - N/A   Clear
10:55 PM 68.0 °F - 65.8 °F 93% 30.17 in 10.0 mi Calm Calm - N/A   Clear
11:15 PM 68.0 °F - 65.3 °F 91% 30.17 in 10.0 mi Calm Calm - N/A   Clear
11:35 PM 68.0 °F - 65.5 °F 92% 30.17 in 10.0 mi Calm Calm - N/A   Clear
11:55 PM 66.7 °F - 64.4 °F 92% 30.17 in 10.0 mi Calm Calm - N/A   Clear